EDT,Max TemperatureF,Mean TemperatureF,Min TemperatureF,Max Dew PointF,MeanDew PointF,Min DewpointF,Max Humidity, Mean Humidity, Min Humidity, Max Sea Level PressureIn, Mean Sea Level PressureIn, Min Sea Level PressureIn, Max VisibilityMiles, Mean VisibilityMiles, Min VisibilityMiles, Max Wind SpeedMPH, Mean Wind SpeedMPH, Max Gust SpeedMPH,PrecipitationIn, CloudCover, Events, WindDirDegrees
2011-10-1,44,40,37,43,39,36,100,89,81,30.08,29.99,29.92,10,8,2,15,9,24,0.00,,,301
2011-10-2,53,46,39,41,35,30,93,73,44,30.12,30.09,30.06,10,10,2,15,7,23,0.00,,,303
2011-10-3,59,50,41,43,35,28,71,59,46,30.21,30.14,30.07,10,10,10,12,7,17,0.00,,,290
2011-10-4,69,56,44,46,42,39,82,59,40,30.34,30.29,30.23,10,10,10,9,3,,0.00,,,287
2011-10-5,73,60,48,54,46,34,100,65,23,30.37,30.34,30.30,10,9,0,7,1,,0.00,,,22
2011-10-6,78,64,51,50,46,41,82,53,30,30.38,30.34,30.32,10,10,7,6,2,,0.00,,,116
2011-10-7,78,66,53,54,51,48,94,62,36,30.46,30.41,30.37,10,10,10,6,2,,0.00,,,84
2011-10-8,75,64,53,48,40,27,72,45,19,30.52,30.47,30.43,10,10,10,9,5,,0.00,,,153
2011-10-9,75,64,53,45,43,37,72,51,25,30.46,30.41,30.34,10,10,10,8,3,,0.00,,,138
2011-10-10,75,66,57,48,44,37,72,51,27,30.35,30.28,30.19,10,10,10,8,2,,0.00,,,101
2011-10-11,68,62,55,54,49,45,88,63,49,30.17,30.10,30.04,10,10,4,9,2,,0.00,,,103
2011-10-12,64,58,53,57,55,54,100,88,73,30.01,29.92,29.85,10,7,0,4,1,,0.00,,,275
2011-10-13,64,60,55,61,57,54,100,91,77,29.83,29.71,29.60,10,6,0,15,2,22,0.00,,,221
2011-10-14,62,56,51,55,45,34,100,67,36,29.84,29.75,29.65,10,9,2,20,11,32,0.00,,,261
2011-10-15,62,54,46,36,31,25,66,42,25,30.06,29.99,29.89,10,10,10,18,9,28,0.00,,,259
2011-10-16,71,56,42,41,35,30,70,45,27,30.17,30.11,30.01,10,10,10,21,6,29,0.00,,,213
2011-10-17,75,66,57,52,49,43,67,55,44,30.02,29.98,29.92,10,10,7,20,11,26,0.00,,,232
2011-10-18,77,67,57,54,51,45,82,60,32,29.92,29.85,29.69,10,10,10,12,5,10,0.00,,,205
2011-10-19,64,55,46,57,51,45,100,81,52,29.62,29.47,29.34,10,6,0,15,6,26,0.00,,,188
2011-10-20,42,40,39,41,38,36,100,91,81,29.90,29.66,29.49,10,7,2,23,17,34,0.00,,,223
2011-10-21,55,45,35,34,33,30,81,63,44,30.13,30.07,29.99,10,10,10,10,6,16,0.00,,,261
2011-10-22,62,50,37,37,33,28,93,61,29,30.19,30.15,30.11,10,10,1,7,1,,0.00,,,259
2011-10-23,66,52,39,37,32,27,76,49,23,30.16,30.13,30.10,10,9,0,9,1,,0.00,,,248
2011-10-24,68,57,46,45,38,36,71,51,30,30.22,30.15,30.10,10,9,1,15,5,22,0.00,,,241
2011-10-25,73,58,44,46,38,27,100,57,19,30.31,30.24,30.16,10,8,0,7,2,,0.00,,,181
2011-10-26,69,62,55,45,42,37,63,50,35,30.13,30.06,29.96,10,8,1,22,12,28,0.00,,,223
2011-10-27,62,56,50,54,46,41,94,68,48,29.94,29.89,29.86,10,8,2,17,13,28,0.00,,,233
2011-10-28,42,40,39,41,39,37,100,96,93,30.09,30.04,29.97,10,3,0,10,6,,0.00,,,20
2011-10-29,46,40,33,37,32,27,100,80,49,30.11,30.05,29.98,10,6,0,13,6,21,0.00,,,307
2011-10-30,55,44,32,34,24,12,87,52,21,30.28,30.21,30.14,10,10,4,9,3,,0.00,,,198
2011-10-31,46,42,39,36,29,25,76,57,46,30.22,30.20,30.17,10,10,10,16,8,26,0.00,,,185